Time,TemperatureF,DewpointF,PressureIn,WindDirection,WindDirectionDegrees,WindSpeedMPH,WindSpeedGustMPH,Humidity,HourlyPrecipIn,Conditions,Clouds,dailyrainin,SoftwareType,DateUTC
2013-03-27 00:29:00,49.3,46.0,29.96,SSE,165,2.0,6.0,88,0.00,,,0.00,weatherlink.com 1.10,2013-03-27 07:29:00,
2013-03-27 00:59:00,49.4,47.0,29.96,SSW,208,5.0,11.0,90,0.00,,,0.00,weatherlink.com 1.10,2013-03-27 07:59:00,
2013-03-27 01:15:00,49.5,47.0,29.96,South,183,8.0,12.0,91,0.00,,,0.00,weatherlink.com 1.10,2013-03-27 08:15:00,
2013-03-27 01:30:00,49.6,47.0,29.96,SE,134,6.0,10.0,91,0.00,,,0.00,weatherlink.com 1.10,2013-03-27 08:30:00,
2013-03-27 01:45:00,49.6,47.0,29.96,SW,222,6.0,10.0,91,0.00,,,0.00,weatherlink.com 1.10,2013-03-27 08:45:00,
2013-03-27 02:00:00,49.4,47.0,29.96,SW,218,6.0,8.0,91,0.00,,,0.00,weatherlink.com 1.10,2013-03-27 09:00:00,
2013-03-27 02:15:00,49.5,47.0,29.96,SSW,204,5.0,9.0,91,0.00,,,0.00,weatherlink.com 1.10,2013-03-27 09:15:00,
2013-03-27 02:30:00,49.5,47.0,29.95,SSW,198,3.0,6.0,91,0.00,,,0.00,weatherlink.com 1.10,2013-03-27 09:30:00,
2013-03-27 02:45:00,49.2,47.0,29.95,SE,146,2.0,5.0,90,0.00,,,0.00,weatherlink.com 1.10,2013-03-27 09:45:00,
2013-03-27 03:00:00,48.7,46.0,29.95,SSE,159,3.0,6.0,90,0.00,,,0.00,weatherlink.com 1.10,2013-03-27 10:00:00,
2013-03-27 03:15:00,48.4,45.0,29.94,SSE,153,1.0,4.0,89,0.00,,,0.00,weatherlink.com 1.10,2013-03-27 10:15:00,
2013-03-27 03:30:00,48.5,46.0,29.94,ESE,105,1.0,3.0,90,0.00,,,0.00,weatherlink.com 1.10,2013-03-27 10:30:00,
2013-03-27 03:45:00,48.4,46.0,29.94,SE,136,0.0,5.0,90,0.00,,,0.00,weatherlink.com 1.10,2013-03-27 10:45:00,
2013-03-27 04:00:00,48.5,46.0,29.95,SSW,195,1.0,3.0,90,0.00,,,0.00,weatherlink.com 1.10,2013-03-27 11:00:00,
2013-03-27 04:15:00,49.0,46.0,29.94,SSE,148,1.0,6.0,90,0.00,,,0.00,weatherlink.com 1.10,2013-03-27 11:15:00,
2013-03-27 04:30:00,49.4,47.0,29.94,SE,128,2.0,5.0,90,0.00,,,0.00,weatherlink.com 1.10,2013-03-27 11:30:00,
2013-03-27 04:45:00,49.6,47.0,29.94,SSE,167,2.0,4.0,89,0.00,,,0.00,weatherlink.com 1.10,2013-03-27 11:45:00,
2013-03-27 05:00:00,49.7,47.0,29.94,South,183,2.0,4.0,89,0.00,,,0.00,weatherlink.com 1.10,2013-03-27 12:00:00,
2013-03-27 05:15:00,49.8,46.0,29.94,SSE,162,0.0,7.0,88,0.00,,,0.00,weatherlink.com 1.10,2013-03-27 12:15:00,
2013-03-27 05:30:00,49.9,46.0,29.94,SSE,155,1.0,5.0,87,0.00,,,0.00,weatherlink.com 1.10,2013-03-27 12:30:00,
2013-03-27 05:45:00,49.8,46.0,29.94,SSW,205,2.0,5.0,87,0.00,,,0.00,weatherlink.com 1.10,2013-03-27 12:45:00,
2013-03-27 06:00:00,49.8,46.0,29.94,SE,142,2.0,6.0,87,0.00,,,0.00,weatherlink.com 1.10,2013-03-27 13:00:00,
2013-03-27 06:15:00,49.6,46.0,29.94,SSE,153,3.0,6.0,87,0.00,,,0.00,weatherlink.com 1.10,2013-03-27 13:15:00,
2013-03-27 06:30:00,49.8,46.0,29.94,South,169,3.0,5.0,87,0.00,,,0.00,weatherlink.com 1.10,2013-03-27 13:30:00,
2013-03-27 06:45:00,49.9,47.0,29.94,SE,142,2.0,6.0,88,0.00,,,0.00,weatherlink.com 1.10,2013-03-27 13:45:00,
2013-03-27 07:00:00,50.1,47.0,29.95,SSE,167,3.0,5.0,88,0.00,,,0.00,weatherlink.com 1.10,2013-03-27 14:00:00,
2013-03-27 07:15:00,50.4,47.0,29.95,South,186,1.0,5.0,88,0.00,,,0.00,weatherlink.com 1.10,2013-03-27 14:15:00,
2013-03-27 07:30:00,50.8,47.0,29.95,South,172,0.0,4.0,88,0.00,,,0.00,weatherlink.com 1.10,2013-03-27 14:30:00,
2013-03-27 08:00:00,51.7,48.0,29.95,SSE,159,2.0,4.0,87,0.00,,,0.00,weatherlink.com 1.10,2013-03-27 15:00:00,
2013-03-27 08:15:00,52.1,48.0,29.95,South,190,2.0,5.0,86,0.00,,,0.00,weatherlink.com 1.10,2013-03-27 15:15:00,
2013-03-27 08:30:00,52.7,48.0,29.95,WSW,239,3.0,6.0,85,0.00,,,0.00,weatherlink.com 1.10,2013-03-27 15:30:00,
2013-03-27 08:45:00,53.2,49.0,29.96,SW,235,4.0,7.0,84,0.00,,,0.00,weatherlink.com 1.10,2013-03-27 15:45:00,
2013-03-27 09:00:00,53.8,48.0,29.96,WSW,238,0.0,5.0,82,0.00,,,0.00,weatherlink.com 1.10,2013-03-27 16:00:00,
2013-03-27 09:15:00,54.2,49.0,29.96,SSW,193,2.0,6.0,82,0.00,,,0.00,weatherlink.com 1.10,2013-03-27 16:15:00,
2013-03-27 09:30:00,54.6,49.0,29.96,SSE,149,1.0,5.0,81,0.00,,,0.00,weatherlink.com 1.10,2013-03-27 16:30:00,
2013-03-27 09:46:00,55.5,49.0,29.96,SSW,197,1.0,3.0,80,0.00,,,0.00,weatherlink.com 1.10,2013-03-27 16:46:00,
2013-03-27 10:01:00,57.0,50.0,29.96,WNW,296,4.0,5.0,78,0.00,,,0.00,weatherlink.com 1.10,2013-03-27 17:01:00,
2013-03-27 10:16:00,57.1,50.0,29.97,SW,224,4.0,7.0,77,0.00,,,0.00,weatherlink.com 1.10,2013-03-27 17:16:00,
2013-03-27 10:31:00,57.0,50.0,29.97,SSW,193,4.0,6.0,77,0.00,,,0.00,weatherlink.com 1.10,2013-03-27 17:31:00,
2013-03-27 10:46:00,57.1,50.0,29.97,WSW,248,8.0,9.0,77,0.00,,,0.00,weatherlink.com 1.10,2013-03-27 17:46:00,
2013-03-27 11:01:00,58.3,51.0,29.97,SSE,162,3.0,9.0,78,0.00,,,0.00,weatherlink.com 1.10,2013-03-27 18:01:00,
2013-03-27 11:16:00,58.4,52.0,29.97,SSW,206,5.0,9.0,78,0.00,,,0.00,weatherlink.com 1.10,2013-03-27 18:16:00,
2013-03-27 11:31:00,58.3,51.0,29.97,SSE,152,3.0,8.0,77,0.00,,,0.00,weatherlink.com 1.10,2013-03-27 18:31:00,
2013-03-27 11:46:00,57.7,51.0,29.97,SSW,193,4.0,8.0,78,0.00,,,0.00,weatherlink.com 1.10,2013-03-27 18:46:00,
2013-03-27 12:31:00,58.3,51.0,29.98,SSW,210,3.0,8.0,77,0.00,,,0.00,weatherlink.com 1.10,2013-03-27 19:31:00,
2013-03-27 13:31:00,58.8,52.0,29.98,SW,233,5.0,9.0,79,0.00,,,0.00,weatherlink.com 1.10,2013-03-27 20:31:00,
2013-03-27 13:46:00,59.4,53.0,29.98,SSW,212,13.0,13.0,79,0.00,,,0.00,weatherlink.com 1.10,2013-03-27 20:46:00,
2013-03-27 14:01:00,58.2,53.0,29.97,West,277,9.0,12.0,82,0.00,,,0.00,weatherlink.com 1.10,2013-03-27 21:01:00,
2013-03-27 14:16:00,57.6,53.0,29.97,SW,232,11.0,12.0,84,0.00,,,0.00,weatherlink.com 1.10,2013-03-27 21:16:00,
2013-03-27 14:31:00,56.8,52.0,29.97,SSW,195,4.0,12.0,85,0.00,,,0.00,weatherlink.com 1.10,2013-03-27 21:31:00,
2013-03-27 14:46:00,56.2,52.0,29.97,SSW,207,5.0,12.0,87,0.00,,,0.00,weatherlink.com 1.10,2013-03-27 21:46:00,
2013-03-27 15:01:00,56.5,53.0,29.97,WSW,252,4.0,11.0,87,0.00,,,0.00,weatherlink.com 1.10,2013-03-27 22:01:00,
2013-03-27 15:17:00,56.5,53.0,29.97,SSW,208,9.0,16.0,87,0.00,,,0.00,weatherlink.com 1.10,2013-03-27 22:17:00,
2013-03-27 15:31:00,55.6,52.0,29.97,SW,215,9.0,14.0,88,0.00,,,0.00,weatherlink.com 1.10,2013-03-27 22:31:00,
2013-03-27 15:46:00,55.1,52.0,29.97,SSE,165,4.0,15.0,89,0.00,,,0.00,weatherlink.com 1.10,2013-03-27 22:46:00,
2013-03-27 16:01:00,55.5,52.0,29.97,SSE,167,9.0,15.0,89,0.00,,,0.00,weatherlink.com 1.10,2013-03-27 23:01:00,
2013-03-27 16:16:00,56.7,53.0,29.97,WSW,256,5.0,12.0,87,0.00,,,0.00,weatherlink.com 1.10,2013-03-27 23:16:00,
2013-03-27 16:31:00,56.8,52.0,29.97,SW,226,5.0,14.0,84,0.00,,,0.00,weatherlink.com 1.10,2013-03-27 23:31:00,
2013-03-27 16:46:00,55.7,52.0,29.97,WSW,242,12.0,15.0,88,0.00,,,0.00,weatherlink.com 1.10,2013-03-27 23:46:00,
2013-03-27 17:01:00,55.1,52.0,29.97,SW,219,5.0,11.0,88,0.00,,,0.00,weatherlink.com 1.10,2013-03-28 00:01:00,
2013-03-27 17:16:00,54.6,52.0,29.97,SW,229,8.0,13.0,89,0.00,,,0.00,weatherlink.com 1.10,2013-03-28 00:16:00,
2013-03-27 17:31:00,54.4,52.0,29.97,WSW,257,9.0,12.0,90,0.00,,,0.00,weatherlink.com 1.10,2013-03-28 00:31:00,
2013-03-27 18:01:00,54.3,52.0,29.97,WSW,248,4.0,10.0,92,0.00,,,0.00,weatherlink.com 1.10,2013-03-28 01:01:00,
2013-03-27 18:16:00,54.3,52.0,29.97,WSW,254,3.0,8.0,92,0.00,,,0.00,weatherlink.com 1.10,2013-03-28 01:16:00,
2013-03-27 18:31:00,54.2,52.0,29.97,SW,236,4.0,7.0,92,0.00,,,0.00,weatherlink.com 1.10,2013-03-28 01:31:00,
2013-03-27 18:46:00,53.9,52.0,29.97,WSW,249,2.0,8.0,93,0.00,,,0.00,weatherlink.com 1.10,2013-03-28 01:46:00,
2013-03-27 19:01:00,53.6,52.0,29.97,SW,221,4.0,9.0,93,0.00,,,0.00,weatherlink.com 1.10,2013-03-28 02:01:00,
2013-03-27 19:16:00,53.6,52.0,29.97,SW,218,3.0,6.0,94,0.00,,,0.00,weatherlink.com 1.10,2013-03-28 02:16:00,
2013-03-27 19:31:00,53.3,52.0,29.97,SE,138,4.0,8.0,94,0.00,,,0.00,weatherlink.com 1.10,2013-03-28 02:31:00,
2013-03-27 19:46:00,53.1,52.0,29.98,SW,235,4.0,8.0,94,0.00,,,0.00,weatherlink.com 1.10,2013-03-28 02:46:00,
2013-03-27 20:01:00,53.0,51.0,29.98,South,191,5.0,6.0,94,0.00,,,0.00,weatherlink.com 1.10,2013-03-28 03:01:00,
2013-03-27 20:16:00,52.9,51.0,29.98,SSW,204,4.0,5.0,94,0.00,,,0.00,weatherlink.com 1.10,2013-03-28 03:16:00,
2013-03-27 20:31:00,52.7,51.0,29.98,West,260,2.0,7.0,95,0.00,,,0.00,weatherlink.com 1.10,2013-03-28 03:31:00,
2013-03-27 20:46:00,52.7,51.0,29.98,SSW,208,1.0,6.0,95,0.00,,,0.00,weatherlink.com 1.10,2013-03-28 03:46:00,
2013-03-27 21:01:00,52.6,51.0,29.99,WSW,255,6.0,9.0,95,0.00,,,0.00,weatherlink.com 1.10,2013-03-28 04:01:00,
2013-03-27 21:16:00,52.4,51.0,29.99,SSW,195,3.0,8.0,96,0.00,,,0.00,weatherlink.com 1.10,2013-03-28 04:16:00,
2013-03-27 21:31:00,52.5,51.0,29.99,SW,235,3.0,7.0,96,0.00,,,0.00,weatherlink.com 1.10,2013-03-28 04:31:00,
2013-03-27 21:46:00,52.5,51.0,30.00,SSW,212,4.0,8.0,96,0.00,,,0.00,weatherlink.com 1.10,2013-03-28 04:46:00,
2013-03-27 22:01:00,52.5,51.0,30.00,SSW,212,5.0,8.0,96,0.00,,,0.00,weatherlink.com 1.10,2013-03-28 05:01:00,
2013-03-27 22:32:00,52.4,52.0,30.00,SW,236,0.0,4.0,97,0.00,,,0.00,weatherlink.com 1.10,2013-03-28 05:32:00,
2013-03-27 22:47:00,52.4,52.0,30.00,SW,221,2.0,4.0,97,0.00,,,0.00,weatherlink.com 1.10,2013-03-28 05:47:00,
2013-03-27 23:01:00,52.5,52.0,30.00,SSW,206,4.0,6.0,97,0.00,,,0.00,weatherlink.com 1.10,2013-03-28 06:01:00,
2013-03-27 23:17:00,52.4,52.0,30.00,West,259,4.0,5.0,97,0.00,,,0.00,weatherlink.com 1.10,2013-03-28 06:17:00,
2013-03-27 23:32:00,52.5,52.0,30.00,SW,231,4.0,10.0,97,0.00,,,0.00,weatherlink.com 1.10,2013-03-28 06:32:00,
2013-03-27 23:46:00,52.5,52.0,30.00,SW,218,3.0,7.0,97,0.00,,,0.00,weatherlink.com 1.10,2013-03-28 06:46:00,